Tracking 20241 objects as of 25-Jan-2020
HD Live streaming from Space Station
objects crossing your sky now

ARIANE 5 DEB (SYLDA)

Track ARIANE 5 DEB (SYLDA) now!
10-day predictions


NORAD ID: 39081
Int'l Code: 2013-006D
Perigee: 312.7 km
Apogee: 24,436.7 km
Inclination: 6.1 °
Period: 425.7 minutes
Semi major axis: 18745 km
RCS: 0.003 m2 (small)
Launch date: February 7, 2013
Source: France (FR)
Launch site: FRENCH GUIANA (FRGUI)

Note: This is SATELLITE DEBRIS
aabbcc
Your satellite tracking list
Your tracking list is empty




NASA's NSSDC Master Catalog

Two Line Element Set (TLE):
1 39081U 13006D   20024.26697390 +.00002413 +00000-0 +89107-3 0  9999
2 39081 006.1428 307.4776 6434530 110.5797 326.4686 03.38260183073866
Source of the keplerian elements: AFSPC